Torna al catalogo

CORIOLIS

AttivoScienzaSSO
NORAD 27640·PAYLOAD·🇺🇸 United States

Lanciato Jan 6, 2003 da Vandenberg Space Force Base

Loading…

Prossimi Passaggi (prossime 24 ore)

TLE

AggiornatoSource: Space-Track

Epoca: Sep 14, 2026, 11:24 UTC

1 27640U 03001A   26257.47560437  .00000078  00000-0  57136-4 0  9992
2 27640  98.7168 263.0132 0013246 319.6148  40.4044 14.19966395226891

Traccia CORIOLIS in tempo reale con AllMySat

Download on the App Store